Location: Silent Lake
(44.9206°N, 78.0708°W)
Time: 11:00:46
(UTC-04:00)

Daily predictions for brighter satellites

Satellite Brightness Start Highest point End
(mag) Time Altitude Azimuth Time Altitude Azimuth Time Altitude Azimuth
Cosmos 2278 Rocket 2.4 21:02:11 10° S 21:07:39 51° ESE 21:13:08 10° NE
ERS-1 Rocket 3.0 21:05:46 10° SSE 21:10:46 69° ENE 21:15:47 10° N
Timation 2 Rocket 4.1 21:06:31 10° NNW 21:12:27 58° ENE 21:18:21 10° SE
Cosmos 1844 3.8 21:08:37 10° SSW 21:14:23 86° ESE 21:20:14 10° NNE
ISS -3.4 21:11:15 10° SW 21:14:31 83° SSE 21:17:47 10° ENE
Cosmos 1140 Rocket 3.7 21:09:37 10° NNW 21:14:42 59° ENE 21:19:47 10° SE
H-2A R/B 2.5 21:10:56 10° SE 21:15:00 44° ENE 21:18:59 10° N
Okean 3 3.8 21:12:42 10° N 21:16:53 51° ENE 21:21:01 10° SSE
Cosmos 407 Rocket 4.3 21:11:56 10° NNW 21:17:04 54° WSW 21:22:14 10° S
APEX 4.3 21:15:03 10° S 21:18:45 34° ESE 21:23:28 10° NE
Cosmos 2154 Rocket 4.0 21:13:44 10° S 21:19:53 68° E 21:26:02 10° NNE
Cosmos 1939 Rocket 2.9 21:16:20 10° SSE 21:20:11 60° ENE 21:24:07 10° N
COSMOS 2487 2.5 21:17:47 10° NNW 21:21:26 88° WSW 21:25:01 10° SSE
Cosmos 1238 Rocket 2.7 21:18:05 10° N 21:21:26 58° E 21:25:23 10° SSE
BREEZE-M TANK 4.5 20:55:45 10° WSW 21:22:03 89° SSE 21:26:50 10° E
Abrixas 4.1 21:21:20 10° S 21:23:23 17° SE 21:25:27 10° E
YAOGAN 11 4.4 21:19:47 10° S 21:24:19 74° WSW 21:28:55 10° NNW
Cosmos 2082 Rocket 2.8 21:20:08 10° NNW 21:25:37 45° ENE 21:30:57 10° SE
SPOT 5 3.4 21:24:14 10° SE 21:29:22 51° ENE 21:34:34 10° N
Cosmos 1452 Rocket 3.8 21:29:41 10° SSW 21:34:57 77° WNW 21:40:16 10° NNE
Lacrosse 5 3.5 21:36:09 10° SSE 21:38:42 14° ESE 21:41:15 10° E
Cosmos 1184 Rocket 2.7 21:36:06 10° S 21:39:26 79° E 21:42:48 10° NNE
Intercosmos 25 3.5 21:38:24 10° SSE 21:41:31 35° E 21:44:29 10° NNE
H-2A R/B 3.7 21:40:11 10° ESE 21:43:58 21° ENE 21:47:47 10° NNE
Cosmos 2297 3.8 21:40:48 10° S 21:46:19 54° ESE 21:51:54 10° NE
MetOp-B 4.2 21:43:39 11° SSE 21:48:47 63° ENE 21:54:05 10° N
Meteor 1-14 Rocket 4.5 21:45:19 10° SSE 21:50:43 49° E 21:56:04 10° NNE
Meteor 2-13 Rocket 4.4 21:46:59 10° S 21:53:05 72° E 21:59:15 10° NNE
Cosmos 1606 4.3 21:49:45 10° NNW 21:53:21 35° W 21:56:54 10° SSW
Okean 2 Rocket 3.0 21:49:42 10° S 21:54:07 82° E 21:58:32 10° N
SL-8 R/B 4.4 21:50:51 10° W 21:55:36 56° N 22:00:21 10° ENE
BREEZE-M DEB (TANK) 2.8 21:54:26 10° WNW 21:56:20 34° N 21:58:54 10° ENE
EO 1 Delta rocket 4.3 21:51:24 10° N 21:57:26 83° WNW 22:02:21 10° SSW
Cosmos 1782 Rocket 3.8 21:54:31 10° SSW 21:58:58 74° W 22:03:29 10° N
SPOT 1/Viking Rocket 3.8 21:55:17 15° SE 21:59:24 54° ENE 22:04:31 10° N
USA 229 DEB 3.8 21:54:09 10° NW 22:01:17 83° NE 22:07:00 17° SE
Cosmos 1242 Rocket 2.9 21:57:41 10° NNW 22:01:21 67° W 22:04:46 12° S
USA 229 3.8 21:54:14 10° NW 22:01:24 82° NE 22:07:06 17° SE
Cosmos 1850 Rocket 4.3 21:59:21 10° NNW 22:04:40 71° WSW 22:09:25 13° S
COS B Rocket 4.3 22:02:16 10° NNW 22:06:01 43° W 22:09:23 10° SSW
Cosmos 1975 Rocket 3.9 22:07:17 10° NNW 22:11:28 48° W 22:15:39 10° SSW
ARGOS 3.2 22:09:05 19° SSE 22:12:58 63° ENE 22:18:16 10° N
YAOGAN 6 2.5 22:10:46 20° S 22:13:07 86° WSW 22:16:41 10° NNW
Cosmos 2369 Rocket 4.0 22:14:07 12° E 22:14:07 12° E 22:16:10 10° ENE
OAO 3 Rocket 4.4 22:10:14 10° SW 22:14:14 25° S 22:15:30 22° SSE
Lacrosse 5 rocket 2.0 22:11:24 10° S 22:14:47 28° SE 22:18:04 10° ENE
Cosmos 2218 Rocket 4.0 22:08:57 10° S 22:15:18 72° E 22:21:41 10° NNE
BREEZE-M DEB (TANK) 4.0 22:13:02 10° W 22:16:00 55° N 22:24:17 10° ENE
CZ-4 R/B 4.2 22:13:18 10° NNE 22:17:42 40° E 22:20:06 23° SSE
PSLV R/B 3.6 22:16:18 21° S 22:18:04 55° W 22:20:59 10° NNW
SL-08 RB Rocket 3.9 22:15:38 23° SE 22:18:23 57° ENE 22:22:58 10° N
Cosmos 1959 Rocket 4.4 22:17:26 10° S 22:23:33 82° E 22:29:41 10° N
Cosmos 1536 Rocket 3.6 22:20:01 10° N 22:24:30 74° E 22:27:02 25° SSE
AVUM R/B 3.4 22:21:10 10° NNW 22:24:41 79° WSW 22:26:05 34° SSE
Gbstr 26 Del rocket 3.3 22:19:32 10° WNW 22:24:53 74° NNE 22:27:30 25° ESE
CZ-4 SHROUD 4.0 22:23:32 21° SSW 22:25:18 47° W 22:28:20 10° NNW
Cosmos 1727 Rocket 4.0 22:20:00 10° N 22:26:12 73° E 22:30:27 21° SSE
Cosmos 1331 Rocket 4.2 22:27:10 20° S 22:30:28 49° ESE 22:35:26 10° NNE
Landsat 7 4.1 22:28:19 27° SE 22:30:40 54° ENE 22:35:20 10° N
IGS 5A 4.4 22:32:35 27° ESE 22:33:57 34° ENE 22:37:43 10° N
DELTA 2 DEB (DPAF) 4.3 22:34:27 31° SE 22:36:22 57° ENE 22:40:46 10° N
CZ-4C R/B 3.6 22:36:09 35° SE 22:37:34 55° ENE 22:41:43 10° N
ATLAS 2AS CENTAUR R/B 4.4 22:32:33 10° NNW 22:39:43 32° NNE 22:46:39 10° E
Cosmos 1110 Rocket 3.9 22:35:43 15° S 22:40:02 68° ESE 22:45:13 10° NNE
Cosmos 1833 Rocket 3.0 22:36:12 10° NNW 22:41:45 62° WSW 22:45:06 24° S
Meteor 1-20 Rocket 4.1 22:39:25 22° S 22:43:07 70° E 22:48:36 10° NNE
Cosmos 1400 Rocket 4.3 22:44:16 22° E 22:44:16 22° E 22:47:20 10° NE
Cosmos 1339 Rocket 4.4 22:40:02 10° N 22:46:15 85° E 22:50:00 26° S
Terra 2.1 22:44:33 33° SE 22:46:22 54° ENE 22:51:02 10° N
NOSS 3-1 (C) 4.1 22:40:36 10° NW 22:48:03 70° NE 22:53:00 26° SE
USA 245 4.2 22:46:35 24° SSW 22:48:30 45° W 22:52:49 10° NNW
Cosmos 1536 4.5 22:49:24 19° E 22:49:24 19° E 22:51:54 10° NE
Cosmos 1025 Rocket 4.1 22:47:19 10° NNE 22:51:12 29° ENE 22:52:00 27° E
H-2A R/B 4.4 22:48:19 10° SW 22:51:12 18° W 22:54:05 10° NW
ISS -1.3 22:48:19 10° WNW 22:51:13 29° NNW 22:54:08 10° NE
DMSP B5D2-2 4.4 22:46:31 10° NNE 22:51:34 46° E 22:53:13 35° SE
Cosmos 2278 Rocket 4.3 22:47:07 10° WSW 22:52:00 29° NW 22:56:54 10° N
USA 234 3.9 22:52:12 10° ENE 22:57:50 30° SE 22:58:07 30° SE
Timation 1 Rocket 4.3 22:52:41 10° SSW 22:58:42 85° WNW 23:04:44 10° NNE
Abrixas 3.0 22:56:00 10° WSW 22:58:22 50° WSW 22:58:22 50° WSW
Cosmos 1821 Rocket 4.5 22:57:21 32° SE 22:59:30 42° E 23:05:16 10° NNE
CZ-4B R/B 4.0 22:59:17 10° N 23:04:07 56° WNW 23:08:19 13° SW
Cosmos 1300 Rocket 3.5 23:04:46 41° S 23:06:19 89° ESE 23:10:48 10° N
Cosmos 1486 Rocket 4.0 23:02:03 10° NNW 23:07:25 86° WSW 23:09:19 41° SSE
Spot 4 3.9 23:06:34 44° SE 23:07:59 67° ENE 23:12:48 10° N
Cosmos 1354 Rocket 4.3 23:03:40 10° NNW 23:08:51 54° ENE 23:10:29 39° ESE
Cosmos 2082 Rocket 3.6 23:04:37 10° NW 23:09:30 30° WSW 23:12:49 17° SSW
Okean 1 3.6 23:05:31 10° NNW 23:09:33 62° W 23:10:39 43° SSW
Cosmos 1812 3.6 23:10:25 10° NNW 23:14:07 43° W 23:15:11 34° SW
Cosmos 2285 Rocket 4.4 23:12:34 37° SE 23:14:07 43° ESE 23:20:07 10° NNE
Okean 1 Rocket 3.0 23:13:53 45° SSW 23:15:13 86° W 23:19:43 10° N
Cosmos 1602 3.8 23:16:36 57° E 23:16:36 57° E 23:20:21 10° NNE
Cosmos 1356 3.9 23:20:42 53° NE 23:20:42 53° NE 23:23:40 10° NNE
Lacrosse 5 1.7 23:15:50 10° SW 23:20:54 77° SE 23:26:01 10° NE
Genesis I 3.1 23:21:07 65° SSW 23:21:41 88° ESE 23:25:44 10° NE
H-2A R/B 2.4 23:20:50 36° SSW 23:22:56 62° WSW 23:28:11 10° NNW
Meteor 2-4 Rocket 3.9 23:19:32 10° N 23:24:56 57° ENE 23:26:19 44° SE
Okean 1-7 Rocket 4.2 23:29:35 10° NNW 23:33:56 51° W 23:34:56 42° SW
Cosmos 1302 Rocket 4.0 23:32:20 34° SSW 23:34:39 79° WNW 23:39:59 10° NNE
Cosmos 1544 Rocket 4.2 23:36:48 41° ENE 23:36:48 41° ENE 23:40:29 10° NNE
SL-8 R/B 3.7 23:33:40 10° WNW 23:38:31 79° NNE 23:39:35 54° E
Cosmos 1535 Rocket 4.5 23:37:20 40° S 23:39:54 90° W 23:46:20 10° N
ASTEX 1 3.6 23:38:03 10° N 23:42:58 66° W 23:44:25 44° SW
Cosmos 1633 3.0 23:44:52 58° NNE 23:44:52 58° NNE 23:47:56 10° N
Meteor 2-14 Rocket 4.4 23:42:33 49° SSE 23:44:13 73° E 23:50:22 10° NNE
Meteor 2-15 4.4 23:38:24 10° N 23:44:33 79° E 23:46:10 51° SSE
Iridium 4 Rocket 3.7 23:41:52 10° N 23:47:50 89° W 23:49:23 52° S
Cosmos 1315 Rocket 3.2 23:51:14 55° NE 23:51:14 55° NE 23:54:28 10° NNE
Lacrosse 5 rocket 2.3 23:50:14 10° WSW 23:53:54 41° NW 23:57:27 10° NE
